Probability
0 0 0 0 0 0 0 0 0 3 10 16 13 19 16 26 39 45 48 48 48 52 55 58 65 61 65 61 65 65 68 74 74 77 77 74 74 74 71 68 65 65 65 61
0 0 0 3 3 0 0 0 3 6 13 13 6 16 26 39 42 35 48 42 52 52 52 55 58 58 61 65 68 74 74 74 81 84 77 77 77 74 71 68 68 65 61 58
0 0 3 3 3 3 3 3 3 10 13 19 13 23 26 42 45 39 45 48 52 52 42 48 52 52 61 58 65 71 71 71 74 77 77 77 71 71 68 65 65 61 58 55
3 3 0 3 3 3 3 3 6 16 19 16 16 13 26 35 39 35 32 45 55 48 52 45 42 39 52 48 58 61 68 71 68 68 68 68 68 68 61 61 61 61 61 52
3 3 3 6 6 6 6 10 16 19 16 13 19 19 29 29 32 35 42 42 52 58 48 52 45 45 48 45 55 65 68 71 65 61 61 61 58 58 55 61 65 58 55 55
3 3 0 3 6 6 6 6 13 16 16 19 16 13 10 16 32 39 42 45 48 48 55 52 48 42 42 42 48 58 65 65 68 58 61 58 55 61 55 58 48 55 48 42
3 3 3 3 6 6 6 6 23 19 19 23 26 19 23 29 42 45 42 48 45 48 48 48 39 42 42 48 48 52 58 52 48 52 52 52 55 48 45 42 39 45 39 39
3 3 3 10 6 6 13 32 29 26 23 29 26 29 32 35 35 35 42 39 42 42 45 45 45 42 45 52 55 55 48 48 45 42 48 45 45 45 39 39 39 39 35 29
6 6 13 16 19 19 23 26 32 29 29 32 26 29 32 32 35 35 39 35 42 42 42 42 42 45 45 52 48 42 39 39 42 35 39 42 45 39 39 39 39 35 32 29
16 13 16 16 16 16 26 26 26 29 19 23 23 19 26 32 32 32 35 35 39 42 42 42 35 39 52 42 39 35 35 39 35 39 35 39 39 29 29 32 35 29 26 29
16 19 23 19 19 26 26 26 23 19 19 23 23 23 26 32 29 29 32 35 39 42 42 39 35 32 39 35 35 35 35 32 32 32 29 35 29 29 26 26 26 29 19 19
16 19 19 19 19 19 23 19 19 23 19 19 19 23 29 26 29 29 26 35 39 35 39 39 29 29 39 39 35 35 32 32 32 23 23 23 26 16 10 6 6 10 13 13
16 19 16 16 16 19 16 16 19 19 19 23 19 16 19 23 19 23 23 26 29 29 32 26 32 35 32 39 35 29 29 26 23 23 19 19 26 19 13 6 0 0 0 0
10 10 13 10 10 16 16 16 19 16 13 13 13 13 13 13 13 16 19 23 23 19 23 16 19 26 26 32 32 29 26 23 19 23 19 16 23 19 19 13 6 6 0 0
6 3 10 10 10 10 16 13 13 13 13 13 13 10 13 13 13 16 13 13 19 19 19 16 16 16 19 23 23 26 23 26 16 13 13 13 16 16 19 13 13 6 3 0
6 3 3 13 16 10 10 13 13 13 10 10 10 10 13 13 13 16 13 13 23 19 16 16 13 13 16 19 16 19 19 13 13 13 13 13 16 19 23 19 10 6 3 3
6 6 0 6 10 10 10 10 13 13 10 10 10 10 10 13 13 16 16 13 23 26 16 13 13 19 13 16 16 16 16 13 13 13 13 16 16 16 19 19 10 10 3 3
3 0 0 3 6 6 6 6 10 13 10 10 10 10 10 10 10 16 10 10 10 13 10 10 10 10 6 10 13 13 13 10 13 13 16 16 16 16 19 16 10 10 3 0
0 0 0 3 6 6 6 6 10 10 10 10 10 10 10 3 6 10 10 6 6 6 6 6 3 3 6 6 3 6 6 10 13 16 13 10 10 10 10 13 10 10 10 3
6 3 3 3 6 3 3 3 10 13 10 10 6 6 6 3 3 6 3 3 6 6 6 6 3 3 3 3 3 3 3 6 13 10 10 6 6 10 10 13 10 10 10 3
6 6 6 6 10 10 10 6 10 3 6 6 6 6 6 6 3 3 3 3 6 6 3 3 6 3 3 3 3 6 6 6 6 6 6 6 6 10 10 13 10 10 3 3
3 3 6 6 6 6 6 10 10 3 3 3 6 6 6 6 3 0 0 3 3 3 3 3 3 3 3 0 3 3 3 0 0 0 3 10 10 6 6 6 3 0 0 3
6 3 3 3 3 3 10 10 10 3 3 3 6 6 3 3 0 0 3 3 3 3 3 3 0 0 0 0 3 0 0 0 0 0 3 3 3 3 3 0 0 0 0 0
10 6 6 6 6 6 6 6 6 6 6 3 3 3 3 3 0 3 3 3 3 3 3 0 0 0 0 0 0 0 0 3 3 3 3 3 3 3 0 0 3 3 3 3
3 3 6 6 6 6 6 6 6 6 6 6 6 3 3 0 0 0 3 3 0 3 3 0 0 0 0 0 0 0 3 3 0 0 0 0 0 0 0 0 0 0 0 0
0 3 3 3 3 3 6 6 6 6 6 6 6 6 6 6 0 0 3 3 3 0 3 3 3 0 0 3 0 0 0 0 0 0 0 0 0 0 0 0 0 0 0 0
0 3 3 3 3 3 3 3 3 6 6 6 6 6 6 3 3 3 3 3 3 0 0 0 0 0 0 0 0 0 0 0 0 0 0 0 0 0 0 0 0 0 0 0
Height
5841 5844 5847 5850 5853 5856 5859 5862 5866 5868 5870 5873 5874 5876 5878 5879 5880 5881 5881 5882 5883 5884 5884 5885 5885 5886 5886 5887 5887 5887 5887 5887 5887 5886 5885 5885 5884 5883 5881 5880 5879 5878 5877 5876
5832 5835 5838 5841 5844 5848 5851 5854 5857 5860 5862 5866 5867 5869 5871 5872 5874 5875 5875 5876 5877 5878 5879 5880 5880 5880 5881 5881 5882 5882 5882 5882 5882 5881 5881 5880 5878 5877 5877 5876 5874 5873 5872 5871
5823 5827 5829 5832 5836 5839 5842 5845 5848 5851 5855 5858 5860 5862 5864 5866 5868 5869 5870 5871 5872 5872 5873 5874 5875 5874 5875 5876 5876 5877 5877 5877 5876 5876 5875 5875 5873 5872 5871 5870 5869 5868 5866 5865
5815 5818 5820 5826 5827 5830 5833 5836 5839 5842 5846 5849 5852 5854 5856 5859 5860 5862 5863 5864 5865 5866 5867 5868 5869 5869 5870 5870 5870 5871 5871 5871 5870 5870 5869 5869 5867 5866 5866 5864 5863 5862 5860 5859
5805 5808 5811 5815 5818 5821 5824 5827 5830 5833 5836 5840 5843 5846 5848 5851 5853 5854 5856 5857 5858 5859 5861 5862 5862 5863 5863 5864 5864 5864 5865 5865 5864 5864 5863 5862 5861 5860 5859 5858 5856 5855 5854 5852
5796 5799 5802 5806 5808 5811 5815 5817 5820 5823 5827 5830 5834 5837 5840 5842 5844 5846 5847 5849 5851 5852 5853 5854 5855 5856 5856 5857 5857 5857 5858 5858 5857 5857 5855 5854 5854 5852 5851 5850 5848 5847 5846 5844
5785 5789 5792 5796 5799 5802 5807 5808 5811 5814 5817 5821 5824 5827 5830 5833 5835 5837 5838 5840 5842 5844 5845 5846 5847 5848 5848 5849 5849 5849 5850 5849 5849 5848 5847 5846 5845 5844 5843 5842 5840 5839 5837 5836
5776 5779 5784 5786 5789 5793 5795 5798 5801 5804 5807 5810 5814 5817 5820 5823 5825 5827 5829 5831 5832 5835 5836 5837 5838 5839 5840 5840 5840 5841 5840 5840 5840 5839 5838 5837 5836 5835 5833 5832 5831 5830 5829 5827
5767 5771 5773 5776 5779 5782 5785 5788 5791 5794 5797 5801 5804 5807 5810 5813 5815 5817 5820 5821 5823 5825 5826 5828 5829 5830 5830 5831 5831 5830 5830 5830 5830 5829 5828 5827 5826 5825 5824 5823 5822 5821 5819 5818
5757 5760 5764 5767 5769 5772 5775 5778 5781 5784 5787 5790 5794 5797 5800 5802 5805 5807 5809 5811 5813 5814 5815 5817 5818 5819 5820 5820 5820 5820 5820 5820 5819 5818 5817 5816 5815 5814 5814 5813 5812 5811 5809 5808
5747 5751 5754 5757 5760 5763 5765 5768 5771 5774 5777 5780 5783 5786 5789 5792 5794 5797 5799 5801 5802 5803 5804 5806 5807 5808 5809 5809 5809 5809 5809 5809 5808 5807 5806 5805 5804 5803 5803 5802 5801 5800 5799 5798
5738 5741 5744 5747 5750 5752 5755 5758 5761 5764 5767 5770 5773 5776 5778 5781 5783 5786 5787 5789 5790 5792 5793 5794 5795 5796 5797 5797 5797 5797 5797 5797 5796 5796 5795 5794 5793 5792 5791 5791 5790 5789 5788 5787
5728 5731 5734 5737 5740 5743 5746 5749 5751 5754 5757 5760 5762 5765 5767 5769 5772 5774 5776 5777 5778 5780 5781 5782 5783 5783 5784 5784 5785 5785 5785 5785 5784 5784 5783 5782 5781 5780 5780 5779 5778 5777 5776 5775
5719 5722 5725 5728 5730 5733 5736 5739 5741 5744 5746 5749 5751 5754 5756 5758 5760 5762 5764 5765 5766 5767 5768 5769 5770 5771 5771 5771 5772 5772 5772 5772 5771 5771 5771 5770 5769 5768 5768 5767 5766 5765 5764 5763
5711 5713 5716 5719 5721 5723 5726 5729 5731 5733 5736 5738 5740 5742 5745 5747 5749 5750 5752 5753 5754 5755 5756 5757 5758 5759 5759 5759 5759 5759 5759 5758 5758 5758 5758 5758 5757 5757 5756 5755 5754 5753 5752 5751
5704 5706 5708 5711 5713 5715 5717 5719 5721 5723 5725 5727 5729 5731 5733 5735 5737 5739 5740 5741 5742 5743 5744 5745 5746 5746 5746 5746 5746 5747 5746 5746 5746 5746 5746 5746 5745 5745 5745 5744 5743 5742 5741 5740
5697 5699 5701 5703 5705 5707 5708 5709 5711 5713 5714 5716 5718 5720 5722 5724 5726 5727 5728 5729 5730 5731 5732 5733 5734 5735 5735 5735 5735 5735 5735 5735 5735 5735 5734 5734 5733 5733 5733 5732 5731 5730 5729 5728
5690 5692 5694 5695 5697 5698 5699 5700 5702 5703 5705 5706 5708 5709 5711 5712 5714 5715 5717 5718 5719 5720 5721 5722 5722 5723 5723 5724 5724 5724 5725 5724 5724 5724 5723 5723 5723 5722 5722 5721 5720 5719 5718 5717
5684 5686 5687 5688 5689 5690 5691 5692 5693 5695 5696 5697 5698 5700 5701 5703 5704 5706 5707 5708 5709 5710 5711 5712 5712 5713 5713 5714 5714 5714 5714 5714 5713 5713 5713 5713 5712 5712 5711 5710 5710 5709 5707 5706
5678 5680 5681 5682 5683 5684 5684 5685 5686 5687 5688 5689 5690 5691 5693 5694 5696 5697 5698 5699 5700 5701 5701 5702 5703 5703 5704 5704 5704 5704 5704 5704 5703 5702 5702 5702 5701 5701 5700 5700 5699 5698 5696 5695
5673 5675 5675 5676 5677 5678 5678 5679 5680 5680 5681 5682 5683 5684 5685 5687 5688 5689 5690 5691 5692 5692 5693 5694 5694 5695 5696 5696 5696 5695 5695 5694 5693 5692 5692 5692 5691 5691 5690 5689 5688 5686 5685 5683
5669 5670 5670 5671 5671 5672 5672 5673 5673 5674 5674 5675 5677 5678 5679 5680 5681 5682 5682 5683 5684 5684 5685 5686 5687 5688 5688 5688 5688 5687 5686 5685 5685 5684 5683 5682 5682 5681 5680 5679 5677 5675 5674 5672
5664 5665 5666 5666 5667 5667 5667 5668 5668 5668 5669 5670 5671 5672 5673 5674 5675 5675 5676 5677 5677 5678 5678 5679 5680 5680 5681 5681 5680 5680 5679 5678 5677 5676 5675 5674 5673 5672 5670 5669 5667 5665 5663 5661
5660 5661 5661 5662 5663 5663 5664 5664 5664 5664 5665 5665 5666 5667 5667 5669 5669 5670 5671 5671 5671 5672 5672 5673 5673 5673 5674 5674 5673 5673 5672 5671 5670 5668 5667 5665 5664 5663 5661 5659 5657 5655 5653 5650
5656 5657 5658 5658 5659 5660 5660 5660 5661 5661 5661 5662 5662 5663 5663 5664 5665 5665 5666 5666 5666 5667 5667 5667 5668 5668 5668 5667 5667 5666 5665 5664 5663 5662 5660 5658 5656 5654 5652 5650 5648 5646 5643 5641
5652 5653 5654 5655 5656 5657 5658 5658 5659 5659 5659 5659 5660 5660 5660 5660 5661 5661 5661 5662 5662 5662 5662 5662 5662 5662 5662 5662 5661 5660 5659 5658 5657 5655 5653 5651 5648 5646 5644 5642 5639 5637 5635 5632
5649 5650 5652 5653 5654 5655 5655 5656 5657 5657 5658 5658 5658 5658 5658 5658 5658 5658 5658 5658 5658 5658 5658 5658 5658 5657 5657 5656 5656 5655 5653 5652 5650 5648 5645 5643 5641 5638 5636 5634 5631 5629 5626 5623
Wind_Speed
34 33 33 33 33 33 33 33 31 28 27 25 24 22 21 21 21 21 20 20 19 20 20 19 19 19 19 18 18 18 17 17 17 17 17 17 17 17 17 18 18 18 18 18
35 35 35 35 34 34 33 33 33 32 30 27 26 25 24 22 22 22 22 21 21 21 21 21 21 21 20 20 20 20 20 20 20 20 19 19 18 18 18 19 18 18 19 20
34 35 35 37 35 35 34 33 33 33 31 29 29 28 26 25 24 24 23 22 22 23 23 22 22 22 23 22 22 22 21 21 21 21 20 20 20 19 20 21 21 20 20 21
35 35 37 36 36 36 36 36 35 35 34 33 31 30 28 27 26 26 26 25 24 23 23 22 22 22 23 23 23 22 22 22 22 22 22 23 23 23 23 23 22 22 22 22
36 36 37 37 36 36 37 37 37 37 36 35 33 32 31 29 28 28 27 27 26 25 25 25 25 25 25 26 25 24 24 24 24 24 26 25 25 25 25 25 25 25 26 26
36 35 35 36 36 35 36 37 36 36 37 36 34 35 34 32 31 30 30 29 29 28 28 28 28 28 28 28 28 28 27 27 27 28 29 28 28 28 29 29 28 28 29 29
36 36 36 37 36 34 36 36 35 35 36 36 36 36 35 34 34 34 32 32 31 30 31 31 30 31 31 31 31 31 31 31 31 32 32 32 32 32 32 32 32 31 31 31
35 35 37 37 35 35 35 35 35 35 35 36 36 35 34 34 34 34 34 33 33 32 33 33 33 33 33 33 33 33 33 33 34 34 34 34 34 35 35 35 34 34 33 33
37 37 37 36 35 34 34 35 35 35 35 36 36 35 35 34 34 34 35 34 34 34 34 34 35 34 35 35 35 35 36 36 37 37 37 37 37 37 38 37 37 36 35 34
36 36 36 36 35 34 34 34 34 34 34 34 35 34 35 34 34 35 35 36 36 36 35 35 36 36 36 36 37 37 38 38 38 38 39 39 40 40 39 39 38 37 36 36
36 35 35 36 35 35 34 34 33 32 33 33 34 34 34 34 34 35 35 36 36 37 36 37 38 38 37 37 37 38 38 39 38 38 39 40 40 40 40 39 38 37 37 37
34 34 35 35 34 34 34 33 32 33 33 33 34 34 34 35 36 37 37 38 38 38 38 38 39 38 38 38 38 39 39 39 39 39 39 39 39 39 39 39 39 39 39 39
32 33 34 33 33 33 33 33 32 33 33 34 34 34 35 36 36 37 38 38 39 39 39 39 39 39 39 39 39 40 40 40 40 40 40 40 40 40 40 40 40 40 40 39
29 30 31 31 31 31 32 32 33 33 34 35 35 35 36 36 36 37 38 39 39 39 39 39 39 39 40 40 40 41 42 42 41 41 41 40 40 40 39 39 40 39 39 39
27 27 27 28 28 29 30 31 32 33 34 35 35 36 36 36 36 36 37 38 38 39 39 39 39 39 40 41 41 41 41 40 40 40 39 38 38 38 38 38 39 39 38 39
25 25 25 26 26 28 29 30 31 32 33 34 35 35 35 35 35 36 37 37 38 38 38 38 38 39 40 40 40 40 40 39 38 38 38 38 37 37 38 39 39 39 38 39
24 25 25 24 25 27 28 29 30 30 31 32 33 34 34 35 35 35 36 35 36 36 36 36 37 37 37 37 37 37 37 37 37 37 37 37 37 36 37 37 38 38 38 39
23 24 24 24 24 25 25 26 27 28 29 30 31 31 31 31 32 33 33 34 34 35 35 35 35 35 35 35 35 36 36 36 35 35 35 35 35 35 35 36 36 36 37 37
22 23 23 24 24 24 24 24 25 25 26 26 27 28 29 29 29 30 30 31 32 33 33 33 34 34 34 34 34 34 35 35 34 34 34 34 34 34 34 34 35 35 36 36
20 20 21 21 21 21 21 21 23 24 24 24 25 25 26 27 27 27 28 28 29 29 30 31 31 31 32 32 33 33 33 33 33 33 33 33 33 33 34 34 35 35 35 35
18 18 18 18 18 18 19 19 21 21 22 22 23 23 24 25 25 25 26 27 27 27 27 27 27 26 27 28 28 29 29 30 30 30 30 31 32 32 33 34 34 34 34 34
15 16 16 17 17 16 16 18 18 18 19 20 20 21 21 22 23 23 23 23 23 24 24 24 24 25 25 25 26 26 27 26 26 27 28 29 30 30 31 32 33 33 34 34
13 13 14 15 16 15 15 15 15 16 17 17 18 18 19 19 19 19 20 20 21 22 23 23 23 24 24 25 25 25 25 25 25 26 27 28 29 29 31 32 32 32 33 32
13 13 13 13 14 14 13 13 13 13 14 14 15 15 16 17 17 18 18 19 19 20 20 21 21 22 22 22 22 23 23 23 24 25 25 26 27 28 30 30 31 31 31 31
13 13 13 12 12 11 11 11 11 11 11 11 12 13 14 14 15 16 17 17 17 17 18 19 19 19 19 19 20 20 21 22 22 23 24 25 26 27 28 28 28 27 28 29
9 9 9 10 9 8 8 8 8 8 8 9 10 11 11 11 12 12 13 14 15 16 17 17 17 17 17 18 19 19 19 20 21 23 24 25 26 26 26 26 26 27 28 28
7 7 7 6 7 7 7 6 6 6 6 6 8 8 8 8 9 10 10 12 12 13 14 15 16 17 17 17 18 19 20 21 22 23 23 24 24 24 25 25 25 26 27 27
Wind_Direction
235 236 238 240 241 240 241 242 245 248 250 250 252 251 252 253 253 253 254 253 255 256 256 255 257 258 258 256 258 262 263 264 268 273 277 279 280 280 282 286 286 285 286 287
238 237 239 240 241 241 242 243 245 247 248 249 250 250 250 250 252 254 254 253 253 253 253 254 256 256 255 254 257 260 262 266 267 270 275 280 278 277 280 282 283 284 284 289
242 240 241 242 240 241 242 243 245 247 248 249 250 249 249 249 250 252 255 255 253 252 253 254 255 253 253 254 258 261 263 266 270 270 273 277 275 276 277 280 281 284 284 288
242 242 242 244 243 242 243 244 245 246 247 248 249 248 248 250 251 251 252 253 253 253 254 255 256 257 256 259 261 264 266 268 270 269 271 275 274 275 277 279 280 281 283 286
242 244 245 245 245 245 245 245 246 247 248 249 249 249 249 248 249 249 249 249 251 252 253 256 258 259 260 261 262 264 266 269 271 272 272 273 275 275 275 276 278 282 284 287
242 242 245 247 246 246 247 247 246 246 247 248 249 249 248 248 248 248 248 247 248 250 252 255 257 260 261 262 262 264 266 268 270 272 272 273 276 274 274 275 277 280 283 285
242 243 245 245 246 246 246 247 247 247 247 248 248 248 248 248 249 248 248 248 248 250 253 255 257 259 260 260 260 263 264 266 270 273 274 276 275 275 275 276 278 280 283 283
242 243 245 245 246 246 247 247 247 247 248 248 248 248 248 248 248 248 247 248 249 251 253 255 258 259 260 261 262 264 266 268 271 272 273 274 276 276 276 278 279 280 281 283
241 243 244 245 245 246 247 247 247 247 248 248 249 249 249 248 248 249 249 250 252 253 254 256 258 260 261 262 263 265 266 268 270 272 272 272 274 275 276 276 277 278 279 282
242 243 243 245 246 245 245 246 247 248 248 248 247 248 248 248 249 249 250 251 253 255 256 257 259 261 261 261 263 265 268 270 271 271 272 272 273 274 274 274 275 276 278 281
244 244 243 244 245 245 246 246 246 246 246 245 246 247 247 248 248 249 251 253 254 255 256 258 260 260 261 262 264 266 268 270 271 271 271 271 271 273 272 272 272 274 277 280
243 243 244 245 245 245 246 245 245 245 245 245 247 248 249 250 249 249 252 253 254 256 258 259 259 259 261 263 264 266 268 269 270 272 273 272 272 273 273 272 273 274 276 278
243 243 243 244 244 245 245 245 246 246 246 246 247 249 250 251 251 252 253 254 257 258 259 260 260 260 262 264 265 266 267 268 270 271 273 274 274 273 272 273 274 276 277 278
240 240 240 242 243 243 244 245 245 246 246 245 246 248 250 253 254 255 255 256 257 258 259 260 261 262 263 264 265 266 267 268 270 271 272 273 274 273 272 273 274 275 275 277
241 241 241 242 244 245 244 245 245 246 247 247 247 248 251 253 255 256 256 256 258 259 259 261 262 263 264 264 266 267 268 269 270 271 271 272 273 273 272 273 275 275 276 277
241 242 242 243 245 246 246 246 246 247 247 247 249 251 253 254 256 257 258 258 259 259 259 261 262 263 264 265 265 266 269 269 270 270 270 271 272 273 274 275 274 275 277 278
242 243 243 244 246 247 247 246 246 247 248 248 251 253 255 256 256 257 258 259 259 259 259 260 261 262 264 264 265 267 269 270 270 270 271 271 272 274 275 275 274 275 275 276
243 243 244 246 247 248 248 247 248 249 250 253 254 254 255 256 256 256 257 258 258 258 260 262 262 262 263 265 266 267 269 269 271 273 272 272 273 274 274 274 274 275 276 276
239 241 244 246 248 249 248 250 251 252 253 255 257 257 254 254 256 256 256 257 257 258 259 261 263 263 264 266 268 270 272 271 271 271 272 272 272 273 273 273 274 277 277 278
239 242 247 251 253 254 254 254 254 255 255 256 258 257 254 254 255 256 257 258 258 259 259 260 261 262 264 267 269 272 272 273 273 272 272 272 272 272 272 273 275 277 278 279
243 246 252 253 253 253 254 256 256 256 256 255 255 255 255 254 254 255 256 257 257 258 259 261 262 263 266 268 271 273 274 276 276 274 272 272 272 272 273 274 276 278 279 281
243 245 248 249 250 253 256 255 255 255 255 255 255 255 254 254 254 254 256 258 260 259 259 261 263 265 269 271 272 274 276 277 277 276 275 273 275 277 277 277 277 278 280 282
247 248 250 252 253 257 260 259 258 257 257 255 255 255 256 255 255 257 259 261 262 261 261 263 264 267 269 270 272 275 276 277 278 279 278 277 279 280 280 280 281 281 281 281
247 250 253 254 255 257 260 260 260 259 257 255 256 257 258 258 260 261 262 263 263 262 263 265 266 267 268 270 273 275 276 278 279 279 279 280 281 283 283 283 283 283 284 285
242 244 248 249 252 257 258 258 260 262 260 259 261 263 262 262 262 263 265 265 264 263 263 266 268 267 268 271 274 277 280 281 281 282 283 285 286 287 286 286 286 287 290 291
238 236 240 243 248 254 258 260 259 260 263 261 260 264 264 263 262 264 265 266 267 268 267 267 267 269 273 277 280 282 283 284 285 286 287 289 290 290 290 291 291 291 291 292
229 229 236 243 245 248 254 255 254 260 267 265 259 263 266 266 266 267 268 268 270 272 272 270 271 275 280 282 282 283 284 285 289 291 292 292 292 292 293 293 294 293 293 294